Zurück zum Katalog

COSMOS 80

AktivMilitärLEO
NORAD 1570·PAYLOAD·🇷🇺 Russia

Gestartet Sep 3, 1965 von Baikonur Cosmodrome

Loading…

Nächste Überflüge (nächste 24 Stunden)

TLE

AktuellSource: Space-Track

Epoche: Sep 14, 2026, 08:07 UTC

1 01570U 65070A   26257.33824170 -.00000102  00000-0 -32826-4 0  9991
2 01570  56.0536 228.7090 0102773  82.8893  64.5907 12.52801268792527

Verfolge COSMOS 80 in Echtzeit mit AllMySat

Download on the App Store